Regional Weather Roundup
Issued by NWS State College, PA

Home | Current Version | Previous Version | Graphics & Text | Print | Product List | Glossary Off
Versions: 1 2 3 4 5 6 7 8 9 10 11 12 13 14 15 16 17 18 19 20 21 22 23 24 25 26 27 28 29 30 31 32 33 34 35 36 37 38 39 40 41 42 43 44 45 46 47 48 49 50

000
ASUS41 KCTP 212210
RWRCTP
REGIONAL WEATHER ROUNDUP
NATIONAL WEATHER SERVICE STATE COLLEGE PA
600 PM EDT THU SEP 21 2017

Note: "fair" indicates few or no clouds below 12,000 feet with no
significant weather and/or obstructions to visibility.

* = STATION THAT DOES NOT REPORT PRECIPITATION /E.G. RAIN...SNOW...ETC/
    THUNDER OR FOG.

PAZ002>004-007>009-013>016-020>023-029>032-212300-
WESTERN PENNSYLVANIA

CITY           SKY/WX    TMP DP  RH WIND       PRES   REMARKS
ERIE           SUNNY     77  63  61 NE9       30.09S
MEADVILLE      MOSUNNY   83  60  45 CALM      30.10S
FRANKLIN*      SUNNY     80  61  52 CALM      30.12S
NEW CASTLE     FAIR      84  63  49 N3        30.08F
BEAVER COUNTY  MOSUNNY   84  59  42 CALM      30.08F
BUTLER*        SUNNY     81  63  54 CALM      30.09S
PITTSBURGH INT MOSUNNY   86  61  42 CALM      30.08S
PITTSBURGH     SUNNY     83  59  44 CALM      30.08S
INDIANA*       SUNNY     81  59  47 NW5       30.12S
LATROBE        SUNNY     81  59  47 VRB6      30.10R
WASHINGTON CO* MOSUNNY   82  63  51 NW5       30.09S
$$

PAZ004>006-010>012-017>019-024>028-033>037-041-042-045-046-049>053-212300-
CENTRAL PENNSYLVANIA

CITY           SKY/WX    TMP DP  RH WIND       PRES   REMARKS
BRADFORD       SUNNY     78  59  51 N5        30.14S
DUBOIS         SUNNY     79  53  40 N3        30.11S
CLEARFIELD     SUNNY     81  53  37 NW5       30.10S
JOHNSTOWN      SUNNY     78  58  49 NW9       30.13S
ALTOONA        SUNNY     79  60  52 NE5       30.09F
STATE COLLEGE  SUNNY     79  61  53 NE5       30.08S
WILLIAMSPORT   CLOUDY    85  61  44 N8        30.02S
SELINSGROVE    CLOUDY    80  65  59 CALM      30.04R
FT INDIANTOWN  CLOUDY    83  64  52 NW5       29.99F
CAPITAL CITY   MOSUNNY   86  59  39 N6        30.02S
HARRISBURG     PTSUNNY   85  62  46 N8        30.01S
YORK           SUNNY     82  63  52 N6        30.03R
$$

PAZ038>040-043-044-047-048-054-055-060>062-067>071-212300-
EASTERN PENNSYLVANIA

CITY           SKY/WX    TMP DP  RH WIND       PRES   REMARKS
SCRANTON       CLOUDY    79  65  62 NW5       30.06R
MOUNT POCONO   MOSUNNY   74  61  63 NW8       30.09S
ALLENTOWN      CLOUDY    84  64  50 VRB3      30.01R
QUAKERTOWN*    PTCLDY    81  63  54 E3        30.03R
READING        MOSUNNY   84  65  52 N8        30.00R
LANCASTER      MOSUNNY   83  66  56 NW8       30.02R
COATESVILLE    PTCLDY    81  64  57 CALM      30.04S
POTTSTOWN      MOSUNNY   82  62  50 NE5       30.02S
BLUE BELL      CLOUDY    77  64  65 CALM      30.02S
DOYLESTOWN     PTSUNNY   78  62  57 CALM      30.01R
WILLOW GROVE   NOT AVBL
NORTH PHILA    PTSUNNY   82  60  47 NE9       30.02R
PHILADELPHIA   PTSUNNY   84  60  44 N10       29.99R
$$




USA.gov is the U.S. government's official web portal to all federal, state and local government web resources and services.